Location: Seattle
(47.6060°N, 122.3310°W)
Time: 01:41:44
(UTC-07:00)

ISS - Visible Passes

Search period start: 27 September 2016 00:00
Search period end: 07 October 2016 00:00
Orbit: 400 x 410 km, 51.6° (Epoch: 27 September)

Date Brightness Start Highest point End Pass type
(mag) Time Alt. Az. Time Alt. Az. Time Alt. Az.
28 Sep -1.2 20:48:30 10° SSW 20:49:30 17° SSW 20:49:30 17° SSW visible
29 Sep -1.9 19:57:02 10° S 19:59:32 20° SE 20:00:05 20° SE visible
29 Sep -0.3 21:32:27 10° WSW 21:32:46 12° WSW 21:32:46 12° WSW visible
30 Sep -3.0 20:40:23 10° SW 20:43:09 56° SSW 20:43:09 56° SSW visible
01 Oct -2.8 19:48:28 10° SW 19:51:33 40° SSE 19:53:23 20° E visible
01 Oct -0.7 21:24:48 10° W 21:26:03 21° W 21:26:03 21° W visible
02 Oct -3.3 20:32:33 10° WSW 20:35:48 71° NNW 20:36:08 63° NNE visible
03 Oct -3.4 19:40:24 10° WSW 19:43:39 79° SSE 19:46:09 16° ENE visible
03 Oct -0.9 21:17:13 10° W 21:18:48 24° WNW 21:18:48 24° WNW visible
04 Oct -2.6 20:24:52 10° W 20:28:03 48° NNW 20:28:43 40° NNE visible
05 Oct -3.0 19:32:34 10° W 19:35:47 62° NNW 19:38:34 13° ENE visible
05 Oct -1.0 21:09:32 10° WNW 21:11:13 25° NW 21:11:13 25° NW visible
06 Oct -2.4 20:17:12 10° WNW 20:20:18 39° N 20:21:01 34° NNE visible
